This is the latest recevied weather packets stored in our database for station/object N1YZ. If no packets are shown the sender has not sent any weather packets the latest 10 day(s).
| Time | Temp. | Humidity | Pressure | Rain* | Wind** | Luminosity | Snow |
|---|---|---|---|---|---|---|---|
| 1777409371 | 17.78° C | 99% | 1037.4 hPa | 1.78 mm | - | 16 W/m² | - |
| 1777409066 | 17.78° C | 99% | 1037.7 hPa | 1.78 mm | - | 17 W/m² | - |
| 1777408763 | 17.78° C | 99% | 1037.5 hPa | 0 mm | - | 34 W/m² | - |
| 1777408459 | 17.78° C | 99% | 1038 hPa | 0 mm | - | 35 W/m² | - |
| 1777408154 | 17.78° C | 99% | 1037.8 hPa | 0 mm | - | 22 W/m² | - |
| 1777407850 | 17.78° C | 99% | 1037.9 hPa | 0 mm | - | 23 W/m² | - |
| 1777407548 | 17.78° C | 99% | 1038.3 hPa | 0 mm | - | 27 W/m² | - |
| 1777407241 | 17.78° C | 99% | 1037.6 hPa | 0 mm | - | 46 W/m² | - |
| 1777406935 | 17.78° C | 99% | 1037.6 hPa | 0 mm | - | 93 W/m² | - |
| 1777406630 | 17.78° C | 99% | 1037.8 hPa | 1.27 mm | - | 111 W/m² | - |
| 1777406327 | 17.78° C | 99% | 1038 hPa | 1.27 mm | - | 51 W/m² | - |
| 1777406026 | 17.78° C | 99% | 1037.9 hPa | 1.78 mm | - | 34 W/m² | - |
| 1777405723 | 17.78° C | 99% | 1037.5 hPa | 4.83 mm | - | 44 W/m² | - |
| 1777405419 | 17.78° C | 99% | 1038 hPa | 4.32 mm | - | 30 W/m² | - |
| 1777405116 | 17.78° C | 99% | 1037.5 hPa | 3.05 mm | - | 26 W/m² | - |
| 1777404815 | 17.78° C | 99% | 1037.7 hPa | 1.78 mm | - | 24 W/m² | - |
| 1777404511 | 17.78° C | 99% | 1038.3 hPa | 1.27 mm | - | 20 W/m² | - |
| 1777404207 | 17.78° C | 99% | 1038.7 hPa | 1.27 mm | - | 18 W/m² | - |
| 1777403904 | 17.78° C | 99% | 1039 hPa | 0 mm | - | 18 W/m² | - |
| 1777403603 | 17.78° C | 99% | 1038.6 hPa | 0 mm | - | 23 W/m² | - |
| 1777403298 | 17.78° C | 99% | 1038.4 hPa | 1.78 mm | - | 27 W/m² | - |
| 1777402994 | 17.78° C | 99% | 1038.2 hPa | 3.56 mm | - | 30 W/m² | - |
| 1777402689 | 17.78° C | 99% | 1038.2 hPa | 1.78 mm | - | 25 W/m² | - |
| 1777402388 | 17.78° C | 99% | 1038.5 hPa | 3.05 mm | - | 24 W/m² | - |
| 1777402086 | 17.78° C | 99% | 1038.2 hPa | 3.05 mm | - | 25 W/m² | - |
* Rain latest hour (hover to see other rain measurements)
** Current wind speed in m/s (hover to see current wind gust speed)